Lid_Strength_Index
12 15 16 16 15 15 15 17 17 15 13 14 15 14 13 12 13 14 14 12 12 10 9 9 8 8 7 7 6 6 5 5 5 5 6 6 6 5 5 5 4 4 5 4
14 16 14 13 13 14 16 17 17 15 13 15 15 15 14 13 13 13 13 12 11 11 10 9 8 8 7 7 6 6 5 5 5 5 5 5 6 5 5 6 6 6 6 5
16 14 12 13 14 14 16 17 17 16 15 15 16 17 16 13 13 12 12 12 11 10 10 9 8 9 8 7 7 7 7 7 8 7 7 7 7 7 8 7 7 7 6 6
14 13 13 14 15 14 16 14 14 15 17 20 16 21 18 15 14 13 12 11 11 10 10 10 10 10 9 9 9 8 8 7 7 8 8 9 9 10 9 9 8 8 7 7
15 14 14 15 14 14 15 13 15 15 18 19 18 19 18 15 15 13 13 12 13 12 11 11 10 9 9 9 10 9 8 8 8 9 9 9 10 10 9 10 10 9 9 8
14 13 14 14 13 13 13 14 15 16 17 21 19 19 18 16 15 14 13 12 13 12 11 11 10 9 9 9 10 10 9 9 9 9 10 10 11 11 11 11 11 10 9 9
15 15 14 13 15 14 14 16 21 21 22 21 17 18 16 15 15 13 13 13 13 12 11 11 10 10 10 10 10 10 10 10 10 10 10 10 10 11 11 11 11 11 10 10
19 19 15 14 15 16 16 16 20 23 22 20 18 19 17 16 14 14 12 13 12 12 11 11 10 10 10 10 11 11 10 10 10 10 10 11 10 11 10 11 11 10 10 10
17 18 15 14 14 14 15 18 15 19 21 21 20 18 16 15 15 14 13 12 12 12 11 11 10 10 10 11 10 11 10 10 10 10 10 11 11 11 11 11 10 10 10 9
15 18 16 15 14 14 15 14 19 20 23 22 20 20 19 18 16 15 14 14 13 12 12 11 11 11 10 10 10 10 10 10 10 10 11 10 11 11 10 10 11 10 10 10
15 16 17 16 17 17 16 17 17 18 19 22 24 20 16 16 15 15 14 14 13 13 13 13 13 12 12 11 11 11 11 11 11 11 10 10 10 10 10 10 10 10 10 10
15 17 21 18 16 15 16 16 16 20 21 20 22 21 16 16 15 14 14 13 14 13 13 13 13 13 13 13 12 12 12 12 11 11 10 10 10 10 10 10 10 9 10 10
14 18 22 19 17 16 17 16 16 18 19 20 22 20 16 16 15 15 15 14 14 13 13 14 14 15 15 15 14 13 12 12 11 11 11 11 11 10 10 9 9 9 9 9
11 17 18 20 18 17 18 16 16 17 22 20 19 19 17 16 15 15 16 16 15 15 14 15 16 17 17 16 16 15 15 14 13 13 13 12 12 11 10 9 9 9 9 9
14 19 17 17 16 16 17 17 16 19 17 19 18 18 17 16 16 16 16 16 16 16 16 17 17 17 17 16 15 15 14 13 13 13 12 12 11 10 10 9 8 7 7 6
15 20 21 22 17 16 17 16 16 16 16 17 17 18 16 17 17 17 17 16 17 17 17 17 16 16 16 16 15 14 14 13 12 12 12 11 10 10 9 8 8 7 7 7
16 19 21 21 18 19 23 18 16 16 16 16 18 16 17 17 16 17 18 18 18 18 17 16 16 16 15 15 14 14 13 12 12 12 11 10 10 9 9 8 8 8 7 7
16 18 18 22 20 24 18 16 16 16 17 17 17 17 16 17 17 17 17 18 17 16 16 15 15 15 14 14 13 13 13 12 12 11 10 10 9 9 8 8 7 7 7 8
14 15 19 21 22 19 18 17 17 17 19 17 17 18 18 17 18 19 16 17 17 16 15 15 15 14 14 13 13 12 12 12 11 11 10 9 8 8 8 7 6 6 7 7
14 14 16 20 23 23 20 17 15 16 21 17 17 18 18 18 22 20 16 15 15 15 15 14 14 13 14 13 12 13 12 11 11 10 9 8 8 7 7 6 6 5 5 6
18 16 16 17 18 18 17 16 15 21 20 17 17 18 18 20 18 16 15 15 14 14 14 13 13 13 12 11 11 11 11 11 9 8 8 7 7 7 6 6 6 6 6 6
18 17 18 17 18 20 16 16 17 17 17 17 17 17 17 17 16 16 15 15 14 14 13 13 13 13 11 10 10 10 10 9 8 8 7 7 7 7 7 7 7 7 7 7
17 15 17 16 16 15 16 16 16 16 17 17 17 17 17 17 16 16 16 15 15 14 13 12 13 12 11 9 10 10 9 8 8 8 8 8 7 7 7 7 7 7 7 8
16 14 16 16 17 17 16 16 16 16 17 16 16 16 16 17 16 16 15 15 14 13 13 12 12 11 10 9 9 9 8 8 8 8 8 8 8 7 7 7 7 7 7 8
16 15 16 18 18 17 17 17 16 16 16 16 16 16 15 15 15 15 15 14 13 12 11 11 11 10 10 9 9 8 8 8 8 8 8 8 8 8 7 7 7 7 6 6
16 16 17 18 16 17 18 17 15 16 16 15 16 16 15 14 14 14 13 13 13 12 11 11 10 11 10 9 8 8 7 8 8 9 8 8 7 7 7 7 7 4 3 3